Regional Weather Roundup
Issued by NWS

Home | Current Version | Previous Version | Graphics & Text | Print | Product List | Glossary On
Versions: 1 2 3 4 5 6 7 8 9 10 11 12 13 14 15 16 17 18 19 20 21 22 23 24 25 26 27 28 29 30 31 32 33 34 35 36 37 38 39 40 41 42 43 44 45 46 47 48 49 50
000
ASUS45 KABQ 040801
RWRNM
NEW MEXICO REGIONAL WEATHER ROUNDUP
NATIONAL WEATHER SERVICE ALBUQUERQUE NM
200 AM MDT TUE AUG 04 2015

NOTE: "FAIR" MEANS FEW OR NO CLOUDS BELOW 12,000 FEET AGL WITH NO
       SIGNIFICANT WEATHER OR OBSTRUCTIONS TO VISION.

      THIS PRODUCT IS RELEASED AS TWO VERSIONS.  ONE VERSION NEAR
      THE TOP OF THE HOUR CONTAINING PRELIMINARY DATA FROM ALBUQUERQUE
      AND OTHER STATIONS.  A FINAL VERSION WITH ADDITIONAL DATA IS
      ISSUED ABOUT 10 MINUTES AFTER THE HOUR.

NMZ501-503-504-510>518-040900-
NORTHWEST PLATEAU/NORTHCENTRAL MOUNTAINS

CITY           SKY/WX    TMP DP  RH WIND       PRES   REMARKS
FARMINGTON     CLEAR     61  47  59 NW12      30.15R
SANTA FE       CLEAR     60  49  66 NE8       30.19S
TAOS           CLEAR     54  41  62 CALM      30.27S

$$
NMZ402-403-502-505>509-040900-
WESTCENTRAL MOUNTAINS/SOUTHWEST MOUNTAINS

CITY           SKY/WX    TMP DP  RH WIND       PRES   REMARKS
GALLUP         PTCLDY    59  51  75 E3        30.22S
SILVER CITY      N/A     66  59  77 CALM      30.16R

$$
NMZ407-409-411-412-040900-
SOUTHERN DESERTS

CITY           SKY/WX    TMP DP  RH WIND       PRES   REMARKS
DEMING         MOCLDY    75  59  57 SE9       30.07F
ALAMOGORDO     MOCLDY    77  57  50 S13       30.06F
T OR C         PTCLDY    74  58  57 SE5       30.09R

$$
NMZ519>523-040900-
CENTRAL VALLEYS/CENTRAL HIGHLANDS

CITY           SKY/WX    TMP DP  RH WIND       PRES   REMARKS
ALBUQUERQUE    PTCLDY    72  50  45 W5        30.14R
DOUBLE EAGLE   CLEAR     62  52  69 W7        30.18R
MORIARTY ARPT    N/A     57  49  75 NE5       30.21R
CLINES CORNERS CLEAR     62  47  57 NW8       30.24R
BELEN          FAIR      66  47  48 CALM      30.13R
SOCORRO        NOT AVBL

$$
NMZ524>526-539-540-040900-
SOUTHCENTRAL MOUNTAINS

CITY           SKY/WX    TMP DP  RH WIND       PRES   REMARKS
RUIDOSO          N/A    N/A N/A N/A MISG        N/A

$$
NMZ527>531-040900-
NORTHEAST HIGHLANDS/NORTHEAST PLAINS

CITY           SKY/WX    TMP DP  RH WIND       PRES   REMARKS
RATON          CLEAR     56  55  97 E7        30.20S
CLAYTON        CLOUDY    62  58  86 NW6       30.12R

$$
NMZ532>537-040900-
EASTCENTRAL PLAINS

CITY           SKY/WX    TMP DP  RH WIND       PRES   REMARKS
TUCUMCARI      PTCLDY    69  62  78 N3        30.05R
CANNON AFB     CLEAR     65  63  92 S7        30.07R
CLOVIS AIRPORT CLEAR     64  63  94 S9        30.07S

$$
NMZ028-029-538-040900-
SOUTHEAST PLAINS

CITY           SKY/WX    TMP DP  RH WIND       PRES   REMARKS
ROSWELL        PTCLDY    68  64  87 S10       30.02S
ARTESIA        CLEAR     68  68 100 SE9       30.03F
CARLSBAD       CLEAR     72  63  73 SW7       30.01F
HOBBS            N/A    N/A N/A N/A MISG        N/A


$$



USA.gov is the U.S. government's official web portal to all federal, state and local government web resources and services.